This is the latest recevied weather packets stored in our database for station/object NK2J. If no packets are shown the sender has not sent any weather packets the latest 10 day(s).
| Time | Temp. | Humidity | Pressure | Rain* | Wind** | Luminosity | Snow |
|---|---|---|---|---|---|---|---|
| 1778088380 | 22.22° C | 33% | 1018.1 hPa | 0 mm | - | 686 W/m² | - |
| 1778088076 | 22.22° C | 32% | 1018.2 hPa | 0 mm | - | 676 W/m² | - |
| 1778087773 | 22.78° C | 31% | 1018.1 hPa | 0 mm | - | 669 W/m² | - |
| 1778087470 | 21.67° C | 32% | 1018.2 hPa | 0 mm | - | 660 W/m² | - |
| 1778087167 | 22.22° C | 33% | 1018.2 hPa | 0 mm | - | 651 W/m² | - |
| 1778086860 | 21.67° C | 33% | 1018.3 hPa | 0 mm | - | 643 W/m² | - |
| 1778086558 | 21.67° C | 32% | 1018.2 hPa | 0 mm | - | 632 W/m² | - |
| 1778086254 | 21.67° C | 33% | 1018.1 hPa | 0 mm | - | 624 W/m² | - |
| 1778085951 | 21.67° C | 33% | 1018.2 hPa | 0 mm | - | 611 W/m² | - |
| 1778085648 | 22.22° C | 32% | 1018.2 hPa | 0 mm | - | 598 W/m² | - |
| 1778085344 | 22.22° C | 33% | 1018.2 hPa | 0 mm | - | 588 W/m² | - |
| 1778085039 | 22.22° C | 34% | 1018.1 hPa | 0 mm | - | 575 W/m² | - |
| 1778084736 | 21.67° C | 34% | 1018.1 hPa | 0 mm | - | 561 W/m² | - |
| 1778084427 | 21.11° C | 34% | 1018.2 hPa | 0 mm | - | 550 W/m² | - |
| 1778084125 | 21.67° C | 35% | 1018 hPa | 0 mm | - | 537 W/m² | - |
| 1778083816 | 21.11° C | 34% | 1018.1 hPa | 0 mm | - | 521 W/m² | - |
| 1778083513 | 21.11° C | 34% | 1018.2 hPa | 0 mm | - | 507 W/m² | - |
| 1778083210 | 21.11° C | 34% | 1018.2 hPa | 0 mm | - | 494 W/m² | - |
| 1778082909 | 20.56° C | 36% | 1018.1 hPa | 0 mm | - | 480 W/m² | - |
| 1778081801 | 20° C | 38% | 1018.1 hPa | 0 mm | - | 421 W/m² | - |
| 1778081498 | 20° C | 37% | 1018.2 hPa | 0 mm | - | 406 W/m² | - |
| 1778081195 | 20° C | 39% | 1018.2 hPa | 0 mm | - | 389 W/m² | - |
| 1778080892 | 20° C | 37% | 1018.3 hPa | 0 mm | - | 374 W/m² | - |
| 1778080591 | 20° C | 38% | 1018.3 hPa | 0 mm | - | 360 W/m² | - |
| 1778080287 | 18.89° C | 38% | 1018.2 hPa | 0 mm | - | 344 W/m² | - |
* Rain latest hour (hover to see other rain measurements)
** Current wind speed in m/s (hover to see current wind gust speed)